Location: Newark
(48.0000°N, 67.0000°E)
Time: 00:25:13
(UTC+00:00)

A-11 Canister half - Pass Details

Date: 27 February 2020
Orbit: 1516 x 1683 km, 47.2° (Epoch: 08 April)

Event Time Altitude Azimuth Distance (km) Brightness Sun altitude
Rises 16:09:11 0° 290° (WNW) 4,850 12.8 -29.9°
Reaches altitude 10° 16:12:31 10° 285° (WNW) 3,839 12.0 -30.4°
Maximum altitude 16:21:32 45° 217° (SW) 2,045 9.6 -31.8°
Enters shadow 16:23:59 38° 182° (S) 2,217 9.6 -32.1°
